Regional Weather Roundup
Issued by NWS

Home | Current Version | Previous Version | Graphics & Text | Print | Product List | Glossary On
Versions: 1 2 3 4 5 6 7 8 9 10 11 12 13 14 15 16 17 18 19 20 21 22 23 24 25 26 27 28 29 30 31 32 33 34 35 36 37 38 39 40 41 42 43 44 45 46 47 48 49 50
612
ASUS43 KLOT 221203
RWRIL

ILLINOIS REGIONAL WEATHER ROUNDUP
NATIONAL WEATHER SERVICE CHICAGO/ROMEOVILLE IL
600 AM CST WED NOV 22 2017

NOTE: "FAIR" INDICATES FEW OR NO CLOUDS BELOW 12,000 FEET WITH NO
SIGNIFICANT WEATHER AND/OR OBSTRUCTIONS TO VISIBILITY.

* THESE STATIONS ARE NOT UNDER NWS QUALITY CONTROL. THEY ALSO MAY NOT
  REPORT WEATHER SUCH AS PRECIPITATION OR FOG.

ILZ001-002-007-009-015-016-024-221300-
NORTHWEST ILLINOIS

CITY           SKY/WX    TMP DP  RH WIND       PRES   REMARKS
MOLINE         PTCLDY    19  12  74 W3        30.38S
6HR MIN TEMP:  19; 6HR MAX TEMP:  24;

STERLING*      CLOUDY    18  14  84 MISG        N/A
SAVANNA*       CLOUDY    21  15  77 NW3       30.36S
$$

ILZ003-004-008-010-011-017-018-221300-
NORTH CENTRAL ILLINOIS

CITY           SKY/WX    TMP DP  RH WIND       PRES   REMARKS
ROCKFORD       CLOUDY    19  13  77 NW6       30.36R WCI  11
6HR MIN TEMP:  18; 6HR MAX TEMP:  23;

FREEPORT*      CLOUDY    17  12  80 W6        30.36R WCI   9
ROCHELLE*      CLOUDY    19  15  85 NW5       30.34S WCI  12
DE KALB*       CLOUDY    17  14  87 NW6       30.33R WCI   8
PERU*          CLOUDY    17  14  86 NW6       30.36R WCI   9
$$

ILZ005-006-012>014-019>023-221300-
NORTHEAST ILLINOIS

CITY           SKY/WX    TMP DP  RH WIND       PRES   REMARKS
CHICAGO-OHARE  PTCLDY    23  15  71 NW8       30.32R WCI  14
6HR MIN TEMP:  23; 6HR MAX TEMP:  27;

CHICAGO-MIDWAY NOT AVBL
AURORA         CLOUDY    17  13  84 NW7       30.34R WCI   8
6HR MIN TEMP:  16; 6HR MAX TEMP:  22;

LANSING*       CLEAR     24  16  73 NW6       30.32R WCI  16
JOLIET*        CLEAR     23  18  80 NW3       30.34S
WAUKEGAN       CLEAR     19  14  81 NW3       30.31R
6HR MIN TEMP:  18; 6HR MAX TEMP:  24;

DUPAGE AIRPORT CLEAR     19  15  84 NW6       30.32R WCI  11
6HR MIN TEMP:  19; 6HR MAX TEMP:  25;

KANKAKEE*      CLEAR     23  17  77 NW8       30.34R WCI  14
WHEELING       CLEAR     22  16  78 CALM      30.34R
6HR MIN TEMP:  21; 6HR MAX TEMP:  27;

MORRIS*        CLOUDY    19  16  86 NW5       30.33S WCI  12
ROMEOVILLE*    CLEAR     20  16  85 NW7       30.33R WCI  11
$$

LMZ740>746-221300-
SOUTHERN LAKE MICHIGAN

STATION/POSITION SKY/WX   TEMP    WIND        PRES    VSBY  WAVE
                          AIR SEA DIR/SP/G                  HT/PER
                          (F)     (DEG/KT/KT) (MB)    (MI)  (FT/S)
SOUTHERN BUOY              31 47  360/ 10/ 16 1025.8          4/ 7
HARRISON CRIB              27     310/ 16/ 18   N/A
BURNHAM HARBOR             27     320/  8/ 14   N/A
CALUMET HARBOR             25     290/  5/  7 1025.6R
BURNS HARBOR               32      10/ 12/ 18 1026.1R
MICHIGAN CITY              32     350/ 11/ 15   N/A
$$

ILZ025>027-034>036-040-047-049-050-058-095>099-221300-
WEST-CENTRAL ILLINOIS

CITY           SKY/WX    TMP DP  RH WIND       PRES   REMARKS
QUINCY         CLOUDY    19  15  84 N6        30.38S WCI  11
GALESBURG*     PTCLDY    16  14  90 W5        30.38S WCI   9
MACOMB*        CLOUDY    19  16  88 NW8       30.40S WCI   8
JACKSONVILLE*  CLOUDY    20  15  84 NW5       30.39R WCI  13
PITTSFIELD*    PTCLDY    21  16  83 NW5       30.39S WCI  14
$$

ILZ028>032-037-038-041>044-048-051>054-059>061-221300-
CENTRAL ILLINOIS

CITY           SKY/WX    TMP DP  RH WIND       PRES   REMARKS
PONTIAC        CLOUDY    20  19  94 NW3       30.36R
BLOOMINGTON    CLOUDY    20  16  84 NW8       30.35R WCI  10
DECATUR        CLOUDY    23  17  78 NW9       30.35R WCI  13
PEORIA         CLOUDY    20  15  81 NW3       30.37S
6HR MIN TEMP:  20; 6HR MAX TEMP:  26;

LACON*         CLOUDY    19  15  84 NW3       30.36S
LINCOLN*       PTCLDY    22  19  87 CALM      30.37R
SPRINGFIELD    CLOUDY    22  18  85 NW7       30.38R WCI  13
6HR MIN TEMP:  22; 6HR MAX TEMP:  28;

TAYLORVILLE    CLOUDY    23  18  83 NW7       30.37R WCI  14
6HR MIN TEMP:  23; 6HR MAX TEMP:  28;

$$

ILZ033-039-045-046-055>057-062-063-221300-
EAST-CENTRAL ILLINOIS

CITY           SKY/WX    TMP DP  RH WIND       PRES   REMARKS
CHAMPAIGN      CLEAR     20  16  84 NW6       30.33R WCI  12
DANVILLE*      CLEAR     22  18  81 NW8       30.29S WCI  13
RANTOUL*       CLEAR     24  20  87 NW5       30.33S WCI  18
MATTOON        CLEAR     22  19  89 NW9       30.32R WCI  12
PARIS*         CLEAR     22  19  91 NW5       30.33R WCI  15
$$

ILZ079-100>102-221300-
SOUTHWEST ILLINOIS

CITY           SKY/WX    TMP DP  RH WIND       PRES   REMARKS
ALTON          PTCLDY    24  20  83 NW5       30.39R WCI  18
BELLEVILLE     CLOUDY    25  18  72 NW8       30.37R WCI  17
CAHOKIA*       PTCLDY    25  17  72 N5        30.39R WCI  19
SPARTA*        PTCLDY    27  20  76 N6        30.39R WCI  20
$$

ILZ064>066-069>071-074>076-080>082-084>086-088>090-092>094-221300-
SOUTH-CENTRAL ILLINOIS

CITY           SKY/WX    TMP DP  RH WIND       PRES   REMARKS
CARBONDALE     CLOUDY    26  21  81 N7        30.37R WCI  18
6HR MIN TEMP:  26; 6HR MAX TEMP:  32;

CAIRO*         CLOUDY    29  22  75 N7        30.36R WCI  22
EFFINGHAM*     PTCLDY    26  22  85 NW5       30.36R WCI  20
MARION         CLOUDY    29  22  76 N3        30.37S
MT. VERNON     CLOUDY    26  21  81 CALM      30.37R
CENTRALIA*     PTCLDY    27  22  81 NW7       30.36R WCI  20
SALEM*         PTCLDY    26  21  81 N5        30.36R WCI  21
METROPOLIS*    CLOUDY    29  22  75 N6        30.35R WCI  23
$$

ILZ067-068-072-073-078-083-087-091-221300-
SOUTHEAST ILLINOIS

CITY           SKY/WX    TMP DP  RH WIND       PRES   REMARKS
LAWRENCEVILLE  CLEAR     27  20  75 N9        30.34R WCI  18
FLORA*         CLEAR     27  22  81 NW5       30.36R WCI  22
FAIRFIELD*     CLOUDY    26  21  81 CALM      30.35R
HARRISBURG*    CLOUDY    27  22  80 N7        30.36R WCI  19
ROBINSON*      CLEAR     24  20  85 NW3       30.35R
CARMI*         CLOUDY    25  22  87 NW6       30.35R WCI  18
$$

ABBREVIATIONS USED IN REMARKS
   TC - TEMPERATURE IN CELSIUS
  WCI - WIND CHILL INDEX
   HX - HEAT INDEX
  VSB - VISIBILITY
$$





USA.gov is the U.S. government's official web portal to all federal, state and local government web resources and services.